| time (UTC) | temp C | wind direction | speed KPH | gust KPH | rain 1hr cm | rain 24hr cm | rain mn cm | humidity % | barometer mb |
| 20260505181204 | 10 | 20 | 9.7 | 16.1 | 0.00 | 0.05 | 0.20 | 76 | 1017.5 |
| 20260505180703 | 9 | 7 | 9.7 | 19.3 | 0.00 | 0.05 | 0.20 | 76 | 1017.4 |
| 20260505180203 | 9 | 17 | 6.4 | 19.3 | 0.00 | 0.05 | 0.20 | 76 | 1017.3 |
| 20260505175703 | 9 | 5 | 4.8 | 12.9 | 0.00 | 0.05 | 0.20 | 76 | 1017.4 |
| 20260505175203 | 9 | 7 | 8.0 | 19.3 | 0.00 | 0.05 | 0.20 | 76 | 1017.4 |
| 20260505174704 | 9 | 25 | 9.7 | 16.1 | 0.00 | 0.05 | 0.20 | 76 | 1017.4 |
| 20260505174204 | 10 | 18 | 11.3 | 19.3 | 0.00 | 0.05 | 0.20 | 76 | 1017.5 |
| 20260505173703 | 10 | 353 | 9.7 | 19.3 | 0.00 | 0.05 | 0.20 | 76 | 1017.4 |
| 20260505173204 | 10 | 15 | 9.7 | 19.3 | 0.00 | 0.05 | 0.20 | 75 | 1017.4 |
| 20260505172703 | 10 | 34 | 11.3 | 19.3 | 0.00 | 0.05 | 0.20 | 74 | 1017.4 |
| 20260505172203 | 10 | 15 | 11.3 | 19.3 | 0.00 | 0.05 | 0.20 | 74 | 1017.5 |
| 20260505171703 | 10 | 11 | 12.9 | 19.3 | 0.00 | 0.05 | 0.20 | 74 | 1017.4 |
| 20260505170204 | 11 | 28 | 8.0 | 16.1 | 0.00 | 0.05 | 0.20 | 71 | 1017.3 |
| 20260505165203 | 11 | 7 | 8.0 | 14.5 | 0.00 | 0.05 | 0.20 | 73 | 1017.4 |
| 20260505164704 | 11 | 359 | 8.0 | 14.5 | 0.00 | 0.05 | 0.20 | 71 | 1017.3 |
| 20260505164203 | 11 | 336 | 9.7 | 14.5 | 0.00 | 0.05 | 0.20 | 71 | 1017.4 |
| 20260505163704 | 11 | 29 | 6.4 | 19.3 | 0.00 | 0.05 | 0.20 | 71 | 1017.4 |
| 20260505162704 | 11 | 347 | 9.7 | 16.1 | 0.00 | 0.05 | 0.20 | 72 | 1017.4 |
| 20260505161703 | 11 | 19 | 11.3 | 19.3 | 0.00 | 0.05 | 0.20 | 73 | 1017.4 |
| 20260505161203 | 11 | 11 | 11.3 | 16.1 | 0.00 | 0.05 | 0.20 | 72 | 1017.5 |
| 20260505160704 | 11 | 350 | 9.7 | 19.3 | 0.00 | 0.05 | 0.20 | 75 | 1017.6 |
| 20260505153204 | 10 | 13 | 8.0 | 16.1 | 0.00 | 0.05 | 0.20 | 73 | 1017.7 |
| 20260505152704 | 11 | 8 | 6.4 | 14.5 | 0.00 | 0.05 | 0.20 | 73 | 1017.6 |
| 20260505152203 | 11 | 336 | 8.0 | 14.5 | 0.00 | 0.05 | 0.20 | 72 | 1017.5 |
| 20260505151204 | 11 | 355 | 8.0 | 14.5 | 0.00 | 0.05 | 0.20 | 71 | 1017.5 |
| 20260505150704 | 10 | 10 | 8.0 | 16.1 | 0.00 | 0.05 | 0.20 | 72 | 1017.5 |
| 20260505150204 | 10 | 337 | 4.8 | 19.3 | 0.00 | 0.05 | 0.20 | 71 | 1017.6 |
| 20260505140204 | 11 | 29 | 11.3 | 19.3 | 0.00 | 0.05 | 0.20 | 70 | 1017.8 |
| 20260505130204 | 11 | 313 | 6.4 | 14.5 | 0.00 | 0.05 | 0.20 | 75 | 1017.6 |
| 20260505124704 | 11 | 7 | 4.8 | 14.5 | 0.00 | 0.05 | 0.20 | 76 | 1017.7 |
| 20260505123204 | 11 | 6 | 11.3 | 20.9 | 0.00 | 0.05 | 0.20 | 75 | 1017.6 |
| 20260505122704 | 11 | 5 | 8.0 | 16.1 | 0.00 | 0.05 | 0.20 | 74 | 1017.6 |
| 20260505121703 | 11 | 331 | 4.8 | 12.9 | 0.00 | 0.05 | 0.20 | 76 | 1017.6 |
| 20260505120704 | 11 | 6 | 3.2 | 12.9 | 0.00 | 0.05 | 0.20 | 77 | 1017.6 |
| 20260505120204 | 11 | 21 | 4.8 | 12.9 | 0.00 | 0.05 | 0.20 | 77 | 1017.7 |
| 20260505115703 | 11 | 359 | 8.0 | 19.3 | 0.00 | 0.05 | 0.20 | 78 | 1017.8 |
| 20260505115203 | 11 | 11 | 9.7 | 14.5 | 0.00 | 0.05 | 0.20 | 78 | 1017.7 |
| 20260505114703 | 10 | 24 | 9.7 | 20.9 | 0.00 | 0.05 | 0.20 | 78 | 1017.7 |
| 20260505114203 | 10 | 351 | 8.0 | 16.1 | 0.00 | 0.05 | 0.20 | 79 | 1017.7 |
| 20260505113703 | 10 | 343 | 9.7 | 19.3 | 0.00 | 0.05 | 0.20 | 78 | 1017.7 |
| 20260505112704 | 10 | 26 | 9.7 | 19.3 | 0.00 | 0.05 | 0.20 | 79 | 1017.7 |
| 20260505112204 | 10 | 19 | 4.8 | 12.9 | 0.00 | 0.05 | 0.20 | 80 | 1017.7 |
| 20260505111704 | 10 | 355 | 9.7 | 14.5 | 0.00 | 0.05 | 0.20 | 80 | 1017.7 |
| 20260505111203 | 10 | 320 | 8.0 | 16.1 | 0.00 | 0.05 | 0.20 | 80 | 1017.8 |
| 20260505110703 | 10 | 24 | 14.5 | 19.3 | 0.00 | 0.05 | 0.20 | 80 | 1017.8 |
| 20260505110204 | 11 | 7 | 8.0 | 14.5 | 0.00 | 0.05 | 0.20 | 82 | 1017.7 |
| 20260505102204 | 9 | 5 | 9.7 | 20.9 | 0.00 | 0.05 | 0.20 | 86 | 1017.7 |
| 20260505101704 | 9 | 17 | 8.0 | 19.3 | 0.00 | 0.05 | 0.20 | 86 | 1017.7 |
| 20260505100704 | 10 | 32 | 11.3 | 19.3 | 0.00 | 0.05 | 0.20 | 87 | 1017.8 |
| 20260505100203 | 9 | 14 | 9.7 | 22.5 | 0.00 | 0.05 | 0.20 | 87 | 1017.9 |
| 20260505095704 | 9 | 20 | 9.7 | 19.3 | 0.00 | 0.05 | 0.20 | 87 | 1017.8 |